Location: Complexul Astronomic Baia Mare
(47.6577°N, 23.5639°E)
Time: 06:52:32
(UTC+03:00)

ISS - Pass Details

Date: 16 May 2017
Orbit: 402 x 408 km, 51.6° (Epoch: 29 May)

Event Time Altitude Azimuth Distance (km) Brightness Sun altitude
Exits shadow 03:31:14 34° 272° (W) 690 -3.0 -17.2°
Maximum altitude 03:32:26 64° 341° (NNW) 455 -3.5 -17.1°
Drops below altitude 10° 03:35:42 10° 64° (ENE) 1,465 -0.1 -16.8°
Sets 03:37:48 0° 68° (ENE) 2,325 1.0 -16.6°
